Wind_Speed
55 55 56 56 56 55 55 54 53 52 50 48 46 45 44 43 42 41 40 39 39 38 37 36 36 35 34 34 33 33 33 33 31 29 30 31 31 31 31 31 30 31 31
58 59 59 59 59 59 59 58 57 56 55 54 51 49 47 46 45 43 42 41 40 39 38 37 37 36 35 34 34 33 33 33 31 29 29 30 31 31 31 31 30 30 29
62 63 63 64 64 64 64 63 62 61 60 59 56 54 52 50 47 45 44 43 42 40 39 38 38 37 36 35 34 33 32 32 31 29 28 29 29 30 30 30 30 29 30
65 65 66 66 67 67 67 67 67 65 64 63 62 59 56 54 51 48 47 45 43 41 40 39 39 38 37 36 35 34 32 31 30 29 28 28 27 28 28 29 29 28 28
66 66 66 67 67 68 68 68 68 68 67 66 65 63 60 57 54 52 49 46 45 43 42 41 40 39 37 37 35 34 32 31 30 29 28 27 27 27 27 28 28 28 28
65 64 64 65 65 64 64 65 65 65 65 66 66 64 62 60 58 55 52 50 47 45 43 42 40 38 37 36 35 34 32 30 29 28 28 27 27 27 27 27 27 28 28
58 57 57 56 57 57 57 57 58 58 59 61 62 62 61 60 59 56 53 51 49 47 45 42 40 38 37 35 34 33 31 30 29 28 27 26 26 26 26 26 26 26 26
48 46 44 42 42 42 43 44 46 48 49 51 54 56 56 56 55 54 52 51 49 47 45 43 40 38 36 35 33 32 30 29 28 28 26 25 25 25 25 25 25 25 25
39 37 35 34 32 31 31 32 33 35 37 39 42 44 46 48 49 49 49 48 47 46 44 42 40 37 36 34 32 30 28 27 26 25 23 24 24 23 23 23 23 23 22
36 33 31 30 30 29 29 29 29 29 30 31 32 35 37 39 42 44 46 46 44 43 43 41 39 36 34 32 30 28 26 25 25 24 22 22 23 22 22 22 22 21 20
36 34 33 32 31 30 29 28 27 27 27 27 26 28 29 32 35 38 41 42 42 40 40 39 37 35 32 31 28 26 25 24 23 22 22 21 20 20 20 19 19 20 20
38 37 36 34 33 32 30 28 27 26 25 24 24 24 26 27 29 32 36 37 38 37 37 36 35 33 31 29 27 24 23 22 21 20 19 18 18 18 19 19 19 19 20
39 38 36 35 34 32 30 28 27 26 24 22 21 21 22 24 25 26 30 34 36 34 34 34 33 31 29 27 24 22 20 19 18 18 18 18 19 18 19 19 18 18 20
39 38 36 35 33 31 30 28 27 25 24 23 21 19 20 22 22 23 26 30 33 32 30 31 30 29 28 25 23 21 19 18 17 18 18 18 17 18 18 18 18 17 17
37 35 34 33 31 30 28 27 26 25 24 23 21 20 20 20 20 21 25 29 30 31 29 29 29 27 26 24 23 22 21 20 19 18 17 17 17 18 18 17 16 15 15
33 32 31 29 28 27 26 25 24 23 22 21 21 21 20 20 20 21 24 27 27 29 30 30 28 26 25 24 24 23 21 20 19 18 17 17 17 18 18 17 16 16 15
29 28 26 25 24 24 23 22 21 21 20 19 19 19 19 20 20 21 24 27 26 27 29 28 26 25 25 24 23 22 22 21 19 18 18 17 17 17 17 16 15 15 14
23 22 21 20 20 20 19 18 18 18 17 17 17 17 18 19 20 21 24 26 26 26 27 26 25 24 24 23 23 23 22 21 20 19 18 17 16 16 16 15 14 13 13
16 15 15 14 14 14 14 14 14 15 14 14 14 15 16 18 19 23 25 26 27 26 27 26 26 24 24 24 23 23 22 22 20 19 18 17 16 15 14 14 13 12 12
11 9 9 9 9 10 10 10 10 11 11 11 12 14 16 19 22 25 25 27 28 27 27 27 26 25 24 24 24 23 23 22 20 19 17 16 15 15 14 13 12 12 12
7 5 4 3 4 6 6 7 8 9 10 11 12 16 19 22 24 26 26 27 28 28 28 27 26 25 24 24 24 23 22 20 19 17 16 15 14 14 13 12 12 12 12
6 4 3 3 4 5 6 8 9 10 11 14 16 19 23 26 26 26 26 26 26 28 29 27 26 26 25 24 23 22 20 19 17 16 15 14 13 13 12 12 12 13 14
12 12 11 11 10 10 11 12 13 15 17 18 20 22 25 28 27 27 26 26 27 27 27 27 27 26 24 23 22 20 19 17 16 15 14 13 13 13 13 13 14 15 16
18 18 18 17 17 18 19 19 20 21 23 24 25 26 28 29 28 27 26 27 27 26 26 26 25 23 22 21 19 18 17 16 14 14 13 13 13 14 14 15 16 17 18
23 23 23 24 25 25 25 26 26 27 27 27 28 28 29 29 27 26 26 26 25 25 24 23 22 20 20 19 18 16 15 14 13 13 13 14 15 15 16 17 18 19 21
27 27 27 27 27 27 28 28 28 28 28 28 28 27 27 27 26 25 24 24 23 23 21 20 19 18 17 16 15 14 14 13 14 14 15 16 17 18 19 20 21 22 23
Wind_Direction
282 281 280 280 279 278 278 277 276 275 274 273 272 271 271 270 269 269 270 270 270 271 272 275 277 281 283 284 286 286 284 282 278 273 268 265 263 259 254 250 249 247 246
282 281 280 279 278 277 276 275 274 273 273 272 271 270 270 269 267 266 266 267 268 269 271 273 275 277 280 283 285 284 282 280 278 273 269 265 261 258 255 251 248 246 246
282 280 279 278 277 275 274 273 272 271 271 271 271 269 268 268 266 265 265 265 266 267 269 270 272 275 277 280 282 282 280 278 277 273 268 265 260 255 254 251 250 247 246
283 281 280 278 277 275 274 273 272 270 269 269 269 268 267 266 265 264 263 264 265 266 267 268 270 272 274 277 279 280 279 277 274 271 267 263 258 254 252 250 249 247 245
284 282 281 279 278 276 275 273 272 271 269 268 267 266 265 264 264 263 262 262 262 264 265 266 267 269 271 274 276 277 277 274 272 268 265 261 256 254 252 249 248 247 247
286 284 282 281 279 277 276 274 272 271 270 268 266 264 263 262 261 261 260 259 260 261 263 263 264 266 268 271 273 274 274 272 269 266 262 258 254 252 250 248 247 246 246
289 287 286 284 282 279 277 275 273 271 270 267 265 263 261 260 258 258 257 257 257 258 259 260 261 263 265 267 270 271 271 269 266 264 260 255 252 251 248 246 245 244 245
294 292 291 289 286 283 281 278 275 273 270 267 263 260 258 257 255 254 253 253 253 254 255 256 257 259 261 264 268 268 267 265 263 261 256 251 249 247 245 244 243 242 244
296 294 293 292 292 291 288 285 282 278 274 270 264 259 255 253 251 249 247 247 248 249 250 251 253 254 257 260 264 264 261 260 259 256 251 248 245 243 241 240 240 240 240
295 293 292 291 291 291 291 290 286 283 278 274 267 260 254 251 249 245 242 241 242 243 245 246 248 249 252 255 258 258 255 254 253 251 248 244 241 239 237 236 236 234 234
292 289 289 289 289 288 288 288 287 284 281 278 272 263 255 249 246 242 237 234 233 234 238 241 241 243 247 250 253 252 250 248 249 246 241 238 236 231 229 229 226 225 226
289 287 287 286 285 284 283 282 283 283 280 278 274 264 255 247 242 239 234 228 226 227 231 234 236 238 242 243 245 245 244 242 240 236 230 227 226 225 220 215 215 218 219
287 286 285 283 282 281 278 277 277 277 277 275 272 266 257 247 240 234 229 223 220 219 222 225 226 231 233 234 234 234 231 229 226 222 221 221 220 219 218 217 218 218 219
286 284 283 280 278 276 274 272 272 271 271 269 266 262 256 244 236 229 220 215 214 213 214 217 219 222 223 223 222 220 217 215 214 214 217 214 212 211 210 210 211 211 209
286 283 281 278 274 272 270 270 269 266 265 263 259 257 251 245 233 223 216 211 210 211 209 208 210 211 211 212 213 212 213 213 211 209 209 210 211 207 203 203 202 201 203
287 283 279 275 270 269 268 266 265 263 261 259 253 248 245 240 229 218 213 205 203 205 206 202 202 203 203 203 202 204 205 204 203 201 200 200 199 198 198 199 199 202 204
287 282 278 271 267 265 263 260 259 259 257 251 246 242 238 233 223 214 207 200 196 196 197 194 194 196 196 196 196 197 196 193 191 189 187 187 189 190 192 194 195 197 199
289 282 276 270 264 261 257 255 254 252 248 242 241 236 230 223 213 205 197 190 187 186 187 186 187 189 187 188 188 188 186 183 181 180 181 182 184 187 189 192 195 199 206
294 285 277 269 259 250 248 247 244 242 238 233 230 223 216 208 199 191 186 183 181 180 178 179 180 179 178 179 179 179 179 178 178 179 180 182 184 187 192 197 202 208 216
306 295 281 269 250 238 237 235 230 222 216 213 207 201 194 186 180 178 178 178 178 175 175 176 176 175 175 175 175 175 175 174 175 178 181 186 191 196 201 207 214 223 232
328 313 289 256 221 207 204 201 194 190 189 186 182 178 173 169 167 169 169 171 173 172 172 173 172 171 171 171 172 172 174 176 179 182 187 193 199 206 213 220 229 239 248
31 49 76 115 136 151 158 161 163 164 164 166 167 164 162 161 161 162 163 166 169 169 168 167 167 168 168 169 171 174 177 181 184 188 193 200 208 216 224 233 242 250 257
66 74 82 93 105 116 121 127 133 138 143 146 150 153 156 156 156 157 158 159 159 160 162 163 165 166 167 170 174 177 181 185 190 195 203 211 220 228 236 245 253 259 265
73 77 82 89 95 101 108 114 121 125 129 132 135 140 145 146 147 149 151 152 154 157 160 162 164 167 171 175 179 183 186 191 199 207 216 224 232 240 248 256 263 268 272
78 81 84 90 93 97 102 107 112 118 121 125 128 134 139 142 145 147 149 150 151 154 158 162 167 171 174 178 182 187 192 200 209 219 227 235 244 251 258 264 269 273 276
80 84 87 89 92 95 100 105 109 114 118 122 125 130 135 138 141 143 146 147 149 153 159 165 170 174 177 183 189 195 202 212 222 231 239 247 255 261 266 270 273 276 279
Height
5752 5750 5747 5745 5743 5742 5741 5740 5739 5739 5739 5740 5740 5740 5740 5740 5740 5741 5741 5741 5742 5742 5742 5742 5742 5741 5741 5740 5739 5738 5737 5736 5737 5738 5738 5739 5739 5741 5743 5746 5749 5753 5756
5737 5734 5731 5729 5727 5725 5724 5723 5723 5723 5723 5724 5725 5726 5726 5727 5727 5728 5729 5730 5730 5731 5732 5732 5732 5732 5731 5731 5729 5728 5728 5727 5727 5728 5729 5730 5731 5733 5735 5738 5741 5744 5748
5719 5716 5713 5710 5708 5707 5705 5705 5705 5705 5705 5706 5708 5709 5711 5712 5714 5715 5716 5717 5719 5720 5721 5721 5722 5722 5722 5721 5720 5719 5719 5718 5718 5719 5720 5721 5722 5724 5727 5729 5732 5736 5740
5699 5696 5693 5690 5687 5686 5685 5684 5684 5685 5686 5687 5689 5691 5694 5696 5698 5700 5702 5704 5706 5708 5709 5710 5711 5711 5712 5712 5711 5711 5710 5710 5710 5711 5712 5713 5714 5716 5719 5722 5725 5729 5732
5678 5674 5671 5668 5666 5664 5663 5662 5662 5663 5664 5666 5668 5672 5675 5678 5681 5684 5687 5690 5693 5695 5697 5698 5700 5701 5701 5702 5702 5702 5702 5702 5702 5703 5704 5705 5707 5709 5712 5715 5718 5721 5725
5655 5651 5648 5645 5643 5641 5640 5640 5640 5641 5642 5643 5646 5650 5654 5658 5663 5667 5671 5675 5678 5682 5684 5686 5688 5690 5691 5692 5693 5693 5693 5694 5695 5696 5696 5698 5700 5702 5705 5708 5711 5715 5718
5633 5629 5626 5623 5621 5620 5619 5618 5618 5619 5619 5621 5624 5627 5632 5637 5643 5648 5653 5658 5663 5668 5671 5674 5677 5679 5681 5682 5683 5684 5685 5685 5687 5688 5689 5691 5693 5695 5698 5701 5704 5708 5711
5615 5611 5608 5605 5603 5602 5600 5599 5598 5598 5599 5600 5603 5606 5611 5616 5622 5629 5635 5641 5648 5653 5658 5662 5665 5668 5670 5672 5674 5675 5676 5677 5679 5680 5682 5684 5686 5688 5692 5695 5698 5701 5704
5601 5598 5595 5593 5591 5589 5587 5585 5584 5583 5583 5583 5585 5589 5593 5598 5603 5610 5617 5624 5632 5638 5644 5649 5653 5657 5660 5663 5664 5666 5668 5670 5671 5673 5675 5677 5679 5682 5685 5689 5692 5695 5697
5590 5587 5585 5582 5580 5579 5577 5575 5574 5572 5572 5572 5573 5575 5578 5582 5587 5594 5601 5609 5617 5624 5630 5637 5642 5647 5650 5653 5656 5658 5660 5662 5664 5666 5668 5671 5673 5676 5679 5683 5687 5690 5692
5578 5576 5574 5572 5570 5569 5568 5566 5564 5563 5563 5562 5563 5564 5566 5570 5575 5580 5587 5594 5602 5610 5618 5625 5631 5636 5641 5645 5648 5650 5653 5655 5658 5660 5663 5665 5668 5671 5675 5678 5681 5685 5688
5566 5564 5562 5561 5559 5558 5558 5557 5556 5555 5555 5554 5554 5555 5557 5560 5564 5569 5575 5582 5590 5599 5606 5614 5621 5627 5632 5636 5640 5644 5647 5649 5652 5655 5658 5661 5664 5667 5671 5674 5678 5681 5684
5552 5551 5549 5548 5548 5547 5547 5547 5547 5547 5547 5547 5547 5548 5550 5552 5555 5560 5566 5573 5581 5589 5596 5604 5611 5618 5624 5629 5633 5637 5641 5644 5647 5651 5654 5657 5661 5664 5667 5671 5674 5678 5681
5538 5537 5536 5535 5536 5536 5536 5537 5538 5539 5539 5540 5541 5542 5543 5545 5549 5553 5558 5565 5572 5580 5588 5596 5603 5610 5617 5622 5628 5632 5636 5640 5644 5648 5651 5655 5658 5661 5664 5668 5671 5674 5678
5524 5523 5523 5523 5524 5525 5526 5527 5528 5530 5531 5532 5534 5535 5537 5540 5543 5547 5552 5559 5566 5574 5582 5590 5598 5605 5611 5617 5623 5628 5632 5637 5641 5645 5648 5652 5655 5658 5662 5665 5669 5672 5676
5511 5511 5511 5511 5512 5514 5516 5518 5519 5521 5523 5525 5527 5529 5531 5535 5538 5543 5548 5554 5561 5569 5577 5585 5593 5600 5607 5613 5619 5624 5629 5634 5638 5642 5646 5649 5653 5657 5660 5664 5667 5671 5674
5499 5499 5499 5501 5502 5504 5506 5509 5511 5513 5516 5518 5521 5523 5526 5530 5534 5539 5544 5551 5558 5566 5574 5581 5589 5596 5603 5609 5615 5621 5626 5631 5635 5640 5644 5648 5652 5655 5659 5662 5666 5669 5672
5489 5490 5490 5492 5494 5496 5499 5501 5504 5506 5509 5512 5515 5518 5522 5526 5531 5536 5542 5550 5557 5565 5572 5579 5587 5594 5600 5607 5613 5619 5624 5629 5634 5638 5643 5647 5651 5655 5658 5661 5664 5667 5670
5483 5483 5484 5486 5488 5491 5493 5496 5498 5501 5504 5507 5511 5514 5518 5523 5528 5535 5542 5549 5557 5564 5572 5579 5586 5593 5599 5605 5612 5618 5623 5628 5633 5638 5642 5646 5650 5654 5657 5660 5663 5665 5668
5479 5480 5481 5482 5484 5487 5489 5492 5495 5498 5501 5505 5508 5513 5517 5523 5529 5536 5542 5550 5557 5564 5572 5579 5586 5593 5599 5606 5612 5618 5623 5628 5633 5637 5642 5646 5649 5653 5656 5658 5661 5663 5665
5478 5478 5479 5481 5483 5485 5488 5490 5493 5496 5500 5504 5508 5512 5518 5524 5531 5537 5544 5552 5559 5566 5573 5580 5587 5594 5600 5606 5612 5618 5624 5628 5633 5637 5641 5645 5648 5651 5654 5656 5658 5659 5661
5479 5479 5480 5481 5483 5485 5488 5490 5493 5497 5501 5505 5509 5514 5520 5527 5534 5541 5547 5554 5561 5568 5575 5583 5589 5596 5602 5608 5614 5619 5624 5629 5633 5637 5640 5643 5646 5649 5651 5653 5655 5656 5657
5484 5483 5484 5484 5486 5488 5490 5493 5496 5500 5504 5508 5513 5518 5525 5532 5538 5545 5552 5559 5566 5572 5579 5586 5592 5598 5604 5610 5615 5620 5625 5629 5632 5636 5639 5642 5644 5646 5648 5649 5650 5651 5652
5491 5491 5491 5491 5493 5494 5496 5499 5502 5506 5510 5515 5519 5525 5532 5538 5545 5552 5558 5564 5571 5577 5583 5590 5595 5601 5607 5611 5616 5620 5624 5628 5631 5634 5637 5639 5641 5643 5644 5645 5646 5646 5646
5501 5501 5501 5502 5503 5504 5506 5509 5512 5515 5520 5524 5529 5535 5541 5547 5553 5559 5565 5571 5576 5582 5588 5594 5599 5604 5608 5612 5617 5621 5624 5627 5630 5633 5635 5636 5638 5639 5640 5640 5640 5640 5640
5513 5513 5513 5514 5515 5516 5518 5521 5523 5527 5530 5535 5539 5545 5550 5556 5561 5566 5572 5577 5582 5587 5592 5597 5601 5606 5610 5613 5617 5620 5623 5626 5628 5630 5632 5633 5633 5634 5634 5634 5634 5634 5633